Time,TemperatureF,DewpointF,PressureIn,WindDirection,WindDirectionDegrees,WindSpeedMPH,WindSpeedGustMPH,Humidity,HourlyPrecipIn,Conditions,Clouds,dailyrainin,SoftwareType,DateUTC
2013-05-25 00:00:00,47.8,38.9,30.12,WNW,293,4.0,13.0,71,0.00,,SKC,0.00,VWS V14.00,2013-05-25 04:00:00,
2013-05-25 00:01:00,47.8,38.5,30.12,WNW,294,5.0,13.0,70,0.00,,SKC,0.00,VWS V14.00,2013-05-25 04:01:00,
2013-05-25 00:06:00,47.9,38.6,30.11,WNW,294,6.0,13.0,70,0.00,,SKC,0.00,VWS V14.00,2013-05-25 04:06:00,
2013-05-25 00:11:00,47.9,38.2,30.11,NNW,335,2.0,13.0,69,0.00,,SKC,0.00,VWS V14.00,2013-05-25 04:11:00,
2013-05-25 00:16:00,47.9,38.2,30.11,WNW,292,6.0,13.0,69,0.00,,SKC,0.00,VWS V14.00,2013-05-25 04:16:00,
2013-05-25 00:21:00,48.0,38.3,30.11,West,279,6.0,13.0,69,0.00,,SKC,0.00,VWS V14.00,2013-05-25 04:21:00,
2013-05-25 00:26:00,48.0,38.3,30.11,NW,308,6.0,11.0,69,0.00,,SKC,0.00,VWS V14.00,2013-05-25 04:26:00,
2013-05-25 00:30:00,48.0,38.3,30.11,West,278,5.0,13.0,69,0.00,,SKC,0.00,VWS V14.00,2013-05-25 04:30:00,
2013-05-25 00:31:00,48.1,38.0,30.11,NW,314,4.0,11.0,68,0.00,,SKC,0.00,VWS V14.00,2013-05-25 04:31:00,
2013-05-25 00:37:00,48.1,38.0,30.11,NW,317,5.0,13.0,68,0.00,,SKC,0.00,VWS V14.00,2013-05-25 04:37:00,
2013-05-25 00:42:00,48.2,37.8,30.11,WNW,292,8.0,14.0,67,0.00,,SKC,0.00,VWS V14.00,2013-05-25 04:42:00,
2013-05-25 00:47:00,48.3,37.9,30.11,NW,323,10.0,14.0,67,0.00,,SKC,0.00,VWS V14.00,2013-05-25 04:47:00,
2013-05-25 00:52:00,48.3,37.9,30.11,WNW,296,5.0,14.0,67,0.00,,SKC,0.00,VWS V14.00,2013-05-25 04:52:00,
2013-05-25 00:57:00,48.3,37.9,30.10,NNW,332,4.0,7.0,67,0.00,,SKC,0.00,VWS V14.00,2013-05-25 04:57:00,
2013-05-25 01:00:00,48.3,37.9,30.11,WNW,298,5.0,14.0,67,0.00,,SKC,0.00,VWS V14.00,2013-05-25 05:00:00,
2013-05-25 01:02:00,48.2,37.8,30.10,WNW,284,5.0,7.0,67,0.00,,SKC,0.00,VWS V14.00,2013-05-25 05:02:00,
2013-05-25 01:07:00,48.2,37.8,30.10,WNW,290,11.0,12.0,67,0.00,,SKC,0.00,VWS V14.00,2013-05-25 05:07:00,
2013-05-25 01:13:00,48.2,37.8,30.09,WNW,296,8.0,12.0,67,0.00,,SKC,0.00,VWS V14.00,2013-05-25 05:13:00,
2013-05-25 01:18:00,48.2,37.4,30.10,NW,306,4.0,13.0,66,0.00,,SKC,0.00,VWS V14.00,2013-05-25 05:18:00,
2013-05-25 01:23:00,48.2,37.8,30.10,NW,306,4.0,13.0,67,0.00,,SKC,0.00,VWS V14.00,2013-05-25 05:23:00,
2013-05-25 01:28:00,48.2,37.8,30.10,WNW,294,6.0,12.0,67,0.00,,SKC,0.00,VWS V14.00,2013-05-25 05:28:00,
2013-05-25 01:30:00,48.2,37.8,30.10,WNW,284,7.0,13.0,67,0.00,,SKC,0.00,VWS V14.00,2013-05-25 05:30:00,
2013-05-25 01:33:00,48.1,37.7,30.10,WNW,290,5.0,12.0,67,0.00,,SKC,0.00,VWS V14.00,2013-05-25 05:33:00,
2013-05-25 01:39:00,48.1,37.7,30.09,WNW,297,5.0,12.0,67,0.00,,SKC,0.00,VWS V14.00,2013-05-25 05:39:00,
2013-05-25 01:44:00,48.1,37.7,30.09,WNW,286,6.0,12.0,67,0.00,,SKC,0.00,VWS V14.00,2013-05-25 05:44:00,
2013-05-25 01:49:00,48.0,37.2,30.09,NW,307,6.0,13.0,66,0.00,,SKC,0.00,VWS V14.00,2013-05-25 05:49:00,
2013-05-25 01:54:00,48.0,37.2,30.09,NW,313,6.0,13.0,66,0.00,,SKC,0.00,VWS V14.00,2013-05-25 05:54:00,
2013-05-25 01:59:00,47.9,37.1,30.09,NW,312,5.0,14.0,66,0.00,,SKC,0.00,VWS V14.00,2013-05-25 05:59:00,
2013-05-25 02:00:00,48.0,37.6,30.09,NW,304,4.0,13.0,67,0.00,,SKC,0.00,VWS V14.00,2013-05-25 06:00:00,
2013-05-25 02:04:00,47.9,37.1,30.09,WNW,291,7.0,14.0,66,0.00,,SKC,0.00,VWS V14.00,2013-05-25 06:04:00,
2013-05-25 02:10:00,47.8,37.4,30.09,WNW,284,4.0,14.0,67,0.00,,SKC,0.00,VWS V14.00,2013-05-25 06:10:00,
2013-05-25 02:16:00,47.7,36.9,30.09,WNW,287,6.0,14.0,66,0.00,,SKC,0.00,VWS V14.00,2013-05-25 06:16:00,
2013-05-25 02:21:00,47.7,36.9,30.09,WNW,294,2.0,14.0,66,0.00,,SKC,0.00,VWS V14.00,2013-05-25 06:21:00,
2013-05-25 02:26:00,47.7,36.9,30.09,WNW,299,1.0,13.0,66,0.00,,SKC,0.00,VWS V14.00,2013-05-25 06:26:00,
2013-05-25 02:30:00,47.7,37.3,30.09,WNW,302,5.0,16.0,67,0.00,,SKC,0.00,VWS V14.00,2013-05-25 06:30:00,
2013-05-25 02:31:00,47.7,36.9,30.08,WNW,295,4.0,14.0,66,0.00,,SKC,0.00,VWS V14.00,2013-05-25 06:31:00,
2013-05-25 02:36:00,47.6,37.2,30.08,WNW,302,2.0,14.0,67,0.00,,SKC,0.00,VWS V14.00,2013-05-25 06:36:00,
2013-05-25 02:42:00,47.5,37.1,30.08,WNW,301,9.0,14.0,67,0.00,,SKC,0.00,VWS V14.00,2013-05-25 06:42:00,
2013-05-25 02:47:00,47.5,37.1,30.09,WNW,294,5.0,14.0,67,0.00,,SKC,0.00,VWS V14.00,2013-05-25 06:47:00,
2013-05-25 02:52:00,47.3,36.9,30.09,NW,305,5.0,14.0,67,0.00,,SKC,0.00,VWS V14.00,2013-05-25 06:52:00,
2013-05-25 02:57:00,47.1,37.1,30.09,WNW,293,7.0,8.0,68,0.00,,SKC,0.00,VWS V14.00,2013-05-25 06:57:00,
2013-05-25 03:00:00,47.2,36.8,30.09,WNW,298,4.0,14.0,67,0.00,,SKC,0.00,VWS V14.00,2013-05-25 07:00:00,
2013-05-25 03:02:00,47.0,37.0,30.09,NNW,327,5.0,8.0,68,0.00,,SKC,0.00,VWS V14.00,2013-05-25 07:02:00,
2013-05-25 03:07:00,46.8,36.8,30.09,WNW,292,2.0,12.0,68,0.00,,SKC,0.00,VWS V14.00,2013-05-25 07:07:00,
2013-05-25 03:13:00,46.7,36.7,30.09,WNW,294,6.0,12.0,68,0.00,,SKC,0.00,VWS V14.00,2013-05-25 07:13:00,
2013-05-25 03:18:00,46.6,37.0,30.09,WSW,244,2.0,12.0,69,0.00,,SKC,0.00,VWS V14.00,2013-05-25 07:18:00,
2013-05-25 03:23:00,46.5,36.9,30.09,NW,311,2.0,4.0,69,0.00,,SKC,0.00,VWS V14.00,2013-05-25 07:23:00,
2013-05-25 03:28:00,46.5,36.9,30.09,WNW,288,1.0,8.0,69,0.00,,SKC,0.00,VWS V14.00,2013-05-25 07:28:00,
2013-05-25 03:30:00,46.5,36.9,30.09,NW,311,1.0,12.0,69,0.00,,SKC,0.00,VWS V14.00,2013-05-25 07:30:00,
2013-05-25 03:33:00,46.5,36.9,30.10,West,275,4.0,13.0,69,0.00,,SKC,0.00,VWS V14.00,2013-05-25 07:33:00,
2013-05-25 03:38:00,46.4,36.8,30.09,WNW,288,7.0,14.0,69,0.00,,SKC,0.00,VWS V14.00,2013-05-25 07:38:00,
2013-05-25 03:44:00,46.4,36.8,30.09,West,276,5.0,14.0,69,0.00,,SKC,0.00,VWS V14.00,2013-05-25 07:44:00,
2013-05-25 03:49:00,46.4,36.8,30.09,WNW,294,4.0,14.0,69,0.00,,SKC,0.00,VWS V14.00,2013-05-25 07:49:00,
2013-05-25 03:54:00,46.3,36.7,30.10,West,275,6.0,9.0,69,0.00,,SKC,0.00,VWS V14.00,2013-05-25 07:54:00,
2013-05-25 03:59:00,46.3,36.7,30.10,WNW,292,5.0,14.0,69,0.00,,SKC,0.00,VWS V14.00,2013-05-25 07:59:00,
2013-05-25 04:00:00,46.4,36.8,30.09,WNW,288,5.0,14.0,69,0.00,,SKC,0.00,VWS V14.00,2013-05-25 08:00:00,
2013-05-25 04:04:00,46.3,36.7,30.10,NW,319,10.0,14.0,69,0.00,,SKC,0.00,VWS V14.00,2013-05-25 08:04:00,
2013-05-25 04:09:00,46.3,36.7,30.10,WNW,291,9.0,14.0,69,0.00,,SKC,0.00,VWS V14.00,2013-05-25 08:09:00,
2013-05-25 04:14:00,46.3,36.7,30.10,WNW,289,2.0,14.0,69,0.00,,SKC,0.00,VWS V14.00,2013-05-25 08:14:00,
2013-05-25 04:19:00,46.1,36.5,30.10,WNW,292,4.0,14.0,69,0.00,,SKC,0.00,VWS V14.00,2013-05-25 08:19:00,
2013-05-25 04:24:00,46.1,36.5,30.10,WNW,283,5.0,9.0,69,0.00,,SKC,0.00,VWS V14.00,2013-05-25 08:24:00,
2013-05-25 04:29:00,46.0,36.4,30.10,WNW,292,9.0,9.0,69,0.00,,SKC,0.00,VWS V14.00,2013-05-25 08:29:00,
2013-05-25 04:30:00,46.1,36.5,30.10,WNW,288,5.0,16.0,69,0.00,,SKC,0.00,VWS V14.00,2013-05-25 08:30:00,
2013-05-25 04:34:00,45.9,36.3,30.10,WNW,299,4.0,9.0,69,0.00,,SKC,0.00,VWS V14.00,2013-05-25 08:34:00,
2013-05-25 04:39:00,45.9,36.3,30.10,WNW,290,4.0,9.0,69,0.00,,SKC,0.00,VWS V14.00,2013-05-25 08:39:00,
2013-05-25 04:44:00,45.9,36.3,30.10,WNW,289,4.0,12.0,69,0.00,,SKC,0.00,VWS V14.00,2013-05-25 08:44:00,
2013-05-25 04:50:00,45.8,36.2,30.10,NW,304,6.0,12.0,69,0.00,,SKC,0.00,VWS V14.00,2013-05-25 08:50:00,
2013-05-25 04:55:00,45.7,36.1,30.10,WNW,302,2.0,11.0,69,0.00,,SKC,0.00,VWS V14.00,2013-05-25 08:55:00,
2013-05-25 05:00:00,45.8,36.2,30.10,WNW,300,5.0,13.0,69,0.00,,SKC,0.00,VWS V14.00,2013-05-25 09:00:00,
2013-05-25 05:05:00,45.7,36.1,30.10,NW,309,4.0,13.0,69,0.00,,SKC,0.00,VWS V14.00,2013-05-25 09:05:00,
2013-05-25 05:10:00,45.7,36.1,30.10,NNW,328,5.0,13.0,69,0.00,,SKC,0.00,VWS V14.00,2013-05-25 09:10:00,
2013-05-25 05:15:00,45.7,36.1,30.10,NW,309,1.0,13.0,69,0.00,,SKC,0.00,VWS V14.00,2013-05-25 09:15:00,
2013-05-25 05:20:00,45.6,36.0,30.10,WNW,294,8.0,13.0,69,0.00,,SKC,0.00,VWS V14.00,2013-05-25 09:20:00,
2013-05-25 05:25:00,45.6,36.0,30.10,NW,315,2.0,8.0,69,0.00,,SKC,0.00,VWS V14.00,2013-05-25 09:25:00,
2013-05-25 05:30:00,45.5,35.9,30.10,NW,307,0.0,8.0,69,0.00,,SKC,0.00,VWS V14.00,2013-05-25 09:30:00,
2013-05-25 05:35:00,45.4,35.8,30.10,NW,320,4.0,9.0,69,0.00,,SKC,0.00,VWS V14.00,2013-05-25 09:35:00,
2013-05-25 05:40:00,45.4,35.8,30.10,WNW,300,6.0,9.0,69,0.00,,SKC,0.00,VWS V14.00,2013-05-25 09:40:00,
2013-05-25 05:46:00,45.4,35.8,30.10,WNW,297,2.0,10.0,69,0.00,,SKC,0.00,VWS V14.00,2013-05-25 09:46:00,
2013-05-25 05:51:00,45.5,35.6,30.10,WNW,300,5.0,14.0,68,0.00,,SKC,0.00,VWS V14.00,2013-05-25 09:51:00,
2013-05-25 05:56:00,45.6,35.7,30.10,NW,306,7.0,12.0,68,0.00,,SKC,0.00,VWS V14.00,2013-05-25 09:56:00,
2013-05-25 06:00:00,45.6,35.7,30.10,WNW,291,7.0,14.0,68,0.00,,SKC,0.00,VWS V14.00,2013-05-25 10:00:00,
2013-05-25 06:01:00,45.7,35.8,30.10,NW,312,4.0,12.0,68,0.00,,SKC,0.00,VWS V14.00,2013-05-25 10:01:00,
2013-05-25 06:06:00,45.7,35.8,30.10,WNW,292,6.0,14.0,68,0.00,,SKC,0.00,VWS V14.00,2013-05-25 10:06:00,
2013-05-25 06:11:00,45.8,35.8,30.10,WNW,292,6.0,14.0,68,0.00,,SKC,0.00,VWS V14.00,2013-05-25 10:11:00,
2013-05-25 06:16:00,45.8,35.8,30.10,WNW,290,14.0,14.0,68,0.00,,SKC,0.00,VWS V14.00,2013-05-25 10:16:00,
2013-05-25 06:21:00,45.8,35.8,30.10,WNW,291,9.0,14.0,68,0.00,,SKC,0.00,VWS V14.00,2013-05-25 10:21:00,
2013-05-25 06:26:00,45.9,36.0,30.10,WNW,287,7.0,18.0,68,0.00,,SKC,0.00,VWS V14.00,2013-05-25 10:26:00,
2013-05-25 06:30:00,45.9,36.0,30.10,WNW,298,11.0,15.0,68,0.00,,SKC,0.00,VWS V14.00,2013-05-25 10:30:00,
2013-05-25 06:31:00,46.0,36.0,30.10,NW,304,11.0,18.0,68,0.00,,SKC,0.00,VWS V14.00,2013-05-25 10:31:00,
2013-05-25 06:36:00,46.0,36.0,30.10,NNW,336,11.0,18.0,68,0.00,,SKC,0.00,VWS V14.00,2013-05-25 10:36:00,
2013-05-25 06:41:00,46.1,36.1,30.10,WNW,282,15.0,18.0,68,0.00,,SKC,0.00,VWS V14.00,2013-05-25 10:41:00,
2013-05-25 06:46:00,46.2,36.2,30.10,WNW,303,8.0,18.0,68,0.00,,SKC,0.00,VWS V14.00,2013-05-25 10:46:00,
2013-05-25 06:53:00,46.3,36.0,30.10,NW,304,8.0,18.0,67,0.00,,SKC,0.00,VWS V14.00,2013-05-25 10:53:00,
2013-05-25 06:58:00,46.6,36.2,30.10,West,276,7.0,14.0,67,0.00,,SKC,0.00,VWS V14.00,2013-05-25 10:58:00,
2013-05-25 07:00:00,46.4,36.0,30.10,WNW,300,8.0,18.0,67,0.00,,SKC,0.00,VWS V14.00,2013-05-25 11:00:00,
2013-05-25 07:03:00,46.9,36.5,30.11,NNW,339,9.0,18.0,67,0.00,,SKC,0.00,VWS V14.00,2013-05-25 11:03:00,
2013-05-25 07:08:00,47.1,36.7,30.11,NW,312,5.0,18.0,67,0.00,,SKC,0.00,VWS V14.00,2013-05-25 11:08:00,
2013-05-25 07:13:00,47.2,36.4,30.11,WNW,287,8.0,18.0,66,0.00,,SKC,0.00,VWS V14.00,2013-05-25 11:13:00,
2013-05-25 07:18:00,47.5,37.1,30.11,WNW,290,7.0,18.0,67,0.00,,SKC,0.00,VWS V14.00,2013-05-25 11:18:00,
2013-05-25 07:23:00,47.7,36.9,30.11,WNW,288,5.0,18.0,66,0.00,,SKC,0.00,VWS V14.00,2013-05-25 11:23:00,
2013-05-25 07:28:00,47.9,37.1,30.11,WNW,296,9.0,13.0,66,0.00,,SKC,0.00,VWS V14.00,2013-05-25 11:28:00,
2013-05-25 07:30:00,47.7,36.9,30.11,WNW,288,9.0,18.0,66,0.00,,SKC,0.00,VWS V14.00,2013-05-25 11:30:00,
2013-05-25 07:33:00,48.1,36.9,30.11,WNW,294,6.0,14.0,65,0.00,,SKC,0.00,VWS V14.00,2013-05-25 11:33:00,
2013-05-25 07:38:00,48.4,37.2,30.11,NW,306,8.0,16.0,65,0.00,,SKC,0.00,VWS V14.00,2013-05-25 11:38:00,
2013-05-25 07:43:00,48.6,37.4,30.11,NW,318,7.0,16.0,65,0.00,,SKC,0.00,VWS V14.00,2013-05-25 11:43:00,
2013-05-25 07:48:00,48.9,37.3,30.11,NNW,339,8.0,16.0,64,0.00,,SKC,0.00,VWS V14.00,2013-05-25 11:48:00,
2013-05-25 07:54:00,49.0,37.0,30.11,WNW,290,8.0,16.0,63,0.00,,SKC,0.00,VWS V14.00,2013-05-25 11:54:00,
2013-05-25 07:59:00,49.4,36.9,30.11,NNW,346,10.0,18.0,62,0.00,,SKC,0.00,VWS V14.00,2013-05-25 11:59:00,
2013-05-25 08:00:00,46.4,36.0,30.10,WNW,300,8.0,18.0,67,0.00,,SKC,0.00,VWS V14.00,2013-05-25 12:00:00,
2013-05-25 08:04:00,49.6,36.7,30.12,NNW,330,7.0,18.0,61,0.00,,SKC,0.00,VWS V14.00,2013-05-25 12:04:00,
2013-05-25 08:09:00,49.9,37.0,30.12,WNW,300,6.0,20.0,61,0.00,,SKC,0.00,VWS V14.00,2013-05-25 12:09:00,
2013-05-25 08:14:00,50.0,36.7,30.12,WNW,303,6.0,20.0,60,0.00,,SKC,0.00,VWS V14.00,2013-05-25 12:14:00,
2013-05-25 08:19:00,50.3,37.0,30.12,WNW,292,9.0,20.0,60,0.00,,SKC,0.00,VWS V14.00,2013-05-25 12:19:00,
2013-05-25 08:24:00,50.5,37.6,30.12,WNW,298,12.0,12.0,61,0.00,,SKC,0.00,VWS V14.00,2013-05-25 12:24:00,
2013-05-25 08:29:00,50.7,36.9,30.12,NW,308,11.0,18.0,59,0.00,,SKC,0.00,VWS V14.00,2013-05-25 12:29:00,
2013-05-25 08:30:00,50.4,37.5,30.12,WNW,294,8.0,20.0,61,0.00,,SKC,0.00,VWS V14.00,2013-05-25 12:30:00,
2013-05-25 08:34:00,50.9,38.0,30.13,NNW,342,8.0,18.0,61,0.00,,SKC,0.00,VWS V14.00,2013-05-25 12:34:00,
2013-05-25 08:39:00,51.3,37.9,30.12,North,355,10.0,18.0,60,0.00,,SKC,0.00,VWS V14.00,2013-05-25 12:39:00,
2013-05-25 08:44:00,51.4,37.6,30.12,WNW,302,7.0,19.0,59,0.00,,SKC,0.00,VWS V14.00,2013-05-25 12:44:00,
2013-05-25 08:50:00,51.5,38.1,30.12,NNW,348,13.0,19.0,60,0.00,,SKC,0.00,VWS V14.00,2013-05-25 12:50:00,
2013-05-25 08:55:00,51.6,37.3,30.12,NW,304,7.0,19.0,58,0.00,,SKC,0.00,VWS V14.00,2013-05-25 12:55:00,
2013-05-25 09:00:00,51.9,38.0,30.12,WNW,293,11.0,19.0,59,0.00,,SKC,0.00,VWS V14.00,2013-05-25 13:00:00,
2013-05-25 09:05:00,52.2,37.4,30.12,NNW,342,12.0,19.0,57,0.00,,SKC,0.00,VWS V14.00,2013-05-25 13:05:00,
2013-05-25 09:10:00,52.3,37.5,30.12,WNW,290,9.0,20.0,57,0.00,,SKC,0.00,VWS V14.00,2013-05-25 13:10:00,
2013-05-25 09:15:00,52.5,37.7,30.12,WNW,296,9.0,20.0,57,0.00,,SKC,0.00,VWS V14.00,2013-05-25 13:15:00,
2013-05-25 09:20:00,52.7,37.9,30.12,NNW,335,7.0,20.0,57,0.00,,SKC,0.00,VWS V14.00,2013-05-25 13:20:00,
2013-05-25 09:25:00,52.9,37.7,30.12,WNW,289,9.0,13.0,56,0.00,,SKC,0.00,VWS V14.00,2013-05-25 13:25:00,
2013-05-25 09:30:00,52.8,36.2,30.12,NW,321,9.0,21.0,53,0.00,,SKC,0.00,VWS V14.00,2013-05-25 13:30:00,
2013-05-25 09:35:00,53.0,37.3,30.12,WNW,294,15.0,21.0,55,0.00,,SKC,0.00,VWS V14.00,2013-05-25 13:35:00,
2013-05-25 09:40:00,53.0,37.7,30.12,NW,305,7.0,23.0,56,0.00,,SKC,0.00,VWS V14.00,2013-05-25 13:40:00,
2013-05-25 09:45:00,53.4,36.2,30.12,NW,306,9.0,23.0,52,0.00,,SKC,0.00,VWS V14.00,2013-05-25 13:45:00,
2013-05-25 09:50:00,53.3,36.6,30.12,WNW,301,6.0,23.0,53,0.00,,SKC,0.00,VWS V14.00,2013-05-25 13:50:00,
2013-05-25 09:56:00,53.4,37.2,30.12,North,360,6.0,23.0,54,0.00,,SKC,0.00,VWS V14.00,2013-05-25 13:56:00,
2013-05-25 10:01:00,53.6,37.8,30.12,NNW,344,9.0,23.0,55,0.00,,SKC,0.00,VWS V14.00,2013-05-25 14:01:00,
2013-05-25 10:06:00,53.8,38.0,30.12,NNW,331,8.0,23.0,55,0.00,,SKC,0.00,VWS V14.00,2013-05-25 14:06:00,
2013-05-25 10:11:00,53.7,37.0,30.12,NNW,347,8.0,23.0,53,0.00,,SKC,0.00,VWS V14.00,2013-05-25 14:11:00,
2013-05-25 10:16:00,54.0,35.8,30.12,NW,326,6.0,23.0,50,0.00,,SKC,0.00,VWS V14.00,2013-05-25 14:16:00,
2013-05-25 10:21:00,54.2,37.5,30.12,NW,320,7.0,23.0,53,0.00,,SKC,0.00,VWS V14.00,2013-05-25 14:21:00,
2013-05-25 10:26:00,54.6,37.3,30.12,NNW,338,15.0,20.0,52,0.00,,SKC,0.00,VWS V14.00,2013-05-25 14:26:00,
2013-05-25 10:30:00,54.5,38.2,30.12,NNW,346,5.0,23.0,54,0.00,,SKC,0.00,VWS V14.00,2013-05-25 14:30:00,
2013-05-25 10:31:00,54.0,37.8,30.12,NNW,331,5.0,22.0,54,0.00,,SKC,0.00,VWS V14.00,2013-05-25 14:31:00,
2013-05-25 10:36:00,54.4,38.1,30.12,NNW,338,14.0,22.0,54,0.00,,SKC,0.00,VWS V14.00,2013-05-25 14:36:00,
2013-05-25 10:41:00,54.4,37.2,30.13,NW,315,9.0,24.0,52,0.00,,SKC,0.00,VWS V14.00,2013-05-25 14:41:00,
2013-05-25 10:46:00,54.2,37.5,30.12,WNW,302,17.0,24.0,53,0.00,,SKC,0.00,VWS V14.00,2013-05-25 14:46:00,
2013-05-25 10:52:00,54.5,37.2,30.12,West,276,9.0,24.0,52,0.00,,SKC,0.00,VWS V14.00,2013-05-25 14:52:00,
2013-05-25 10:57:00,54.5,36.8,30.12,NNW,340,9.0,24.0,51,0.00,,SKC,0.00,VWS V14.00,2013-05-25 14:57:00,
2013-05-25 11:02:00,55.0,37.2,30.13,North,355,14.0,24.0,51,0.00,,SKC,0.00,VWS V14.00,2013-05-25 15:02:00,
2013-05-25 11:07:00,55.3,38.5,30.13,NW,325,9.0,24.0,53,0.00,,SKC,0.00,VWS V14.00,2013-05-25 15:07:00,
2013-05-25 11:12:00,55.1,37.8,30.13,WNW,297,5.0,24.0,52,0.00,,SKC,0.00,VWS V14.00,2013-05-25 15:12:00,
2013-05-25 11:17:00,55.1,36.8,30.13,NW,311,11.0,24.0,50,0.00,,SKC,0.00,VWS V14.00,2013-05-25 15:17:00,
2013-05-25 11:22:00,55.3,37.0,30.13,NNW,343,7.0,24.0,50,0.00,,SKC,0.00,VWS V14.00,2013-05-25 15:22:00,
2013-05-25 11:27:00,55.4,38.1,30.13,WNW,303,9.0,18.0,52,0.00,,SKC,0.00,VWS V14.00,2013-05-25 15:27:00,
2013-05-25 11:30:00,55.3,37.5,30.13,WNW,288,11.0,24.0,51,0.00,,SKC,0.00,VWS V14.00,2013-05-25 15:30:00,
2013-05-25 11:32:00,55.3,39.0,30.13,WNW,297,7.0,18.0,54,0.00,,SKC,0.00,VWS V14.00,2013-05-25 15:32:00,
2013-05-25 11:37:00,56.1,38.2,30.13,NNW,330,5.0,18.0,51,0.00,,SKC,0.00,VWS V14.00,2013-05-25 15:37:00,
2013-05-25 11:42:00,56.4,38.0,30.13,NNW,340,10.0,18.0,50,0.00,,SKC,0.00,VWS V14.00,2013-05-25 15:42:00,
2013-05-25 11:47:00,56.1,38.7,30.12,NNW,339,18.0,18.0,52,0.00,,SKC,0.00,VWS V14.00,2013-05-25 15:47:00,
2013-05-25 11:53:00,55.8,38.0,30.13,North,5,7.0,22.0,51,0.00,,SKC,0.00,VWS V14.00,2013-05-25 15:53:00,
2013-05-25 11:58:00,55.9,38.0,30.13,WNW,295,8.0,22.0,51,0.00,,SKC,0.00,VWS V14.00,2013-05-25 15:58:00,
2013-05-25 12:03:00,56.2,37.8,30.12,WNW,286,11.0,19.0,50,0.00,,SKC,0.00,VWS V14.00,2013-05-25 16:03:00,
2013-05-25 12:08:00,56.1,37.7,30.12,WNW,294,11.0,19.0,50,0.00,,SKC,0.00,VWS V14.00,2013-05-25 16:08:00,
2013-05-25 12:13:00,56.5,38.1,30.12,NW,304,8.0,25.0,50,0.00,,SKC,0.00,VWS V14.00,2013-05-25 16:13:00,
2013-05-25 12:18:00,56.6,38.7,30.12,WNW,302,7.0,25.0,51,0.00,,SKC,0.00,VWS V14.00,2013-05-25 16:18:00,
2013-05-25 12:23:00,56.8,38.4,30.12,NW,305,15.0,25.0,50,0.00,,SKC,0.00,VWS V14.00,2013-05-25 16:23:00,
2013-05-25 12:28:00,57.1,38.7,30.12,NNW,335,9.0,20.0,50,0.00,,SKC,0.00,VWS V14.00,2013-05-25 16:28:00,
2013-05-25 12:30:00,56.8,38.4,30.12,NW,325,11.0,25.0,50,0.00,,SKC,0.00,VWS V14.00,2013-05-25 16:30:00,
2013-05-25 12:33:00,57.1,39.2,30.11,NNW,346,14.0,20.0,51,0.00,,SKC,0.00,VWS V14.00,2013-05-25 16:33:00,
2013-05-25 12:38:00,57.2,38.8,30.11,North,351,11.0,20.0,50,0.00,,SKC,0.00,VWS V14.00,2013-05-25 16:38:00,
2013-05-25 12:43:00,57.3,37.8,30.11,North,355,11.0,20.0,48,0.00,,SKC,0.00,VWS V14.00,2013-05-25 16:43:00,
2013-05-25 12:48:00,57.4,37.9,30.11,NW,320,14.0,26.0,48,0.00,,SKC,0.00,VWS V14.00,2013-05-25 16:48:00,
2013-05-25 12:54:00,57.1,38.1,30.11,North,5,9.0,26.0,49,0.00,,SKC,0.00,VWS V14.00,2013-05-25 16:54:00,
2013-05-25 12:59:00,57.1,38.1,30.11,North,5,9.0,26.0,49,0.00,,SKC,0.00,VWS V14.00,2013-05-25 16:59:00,
2013-05-25 13:04:00,57.6,37.5,30.11,NW,326,9.0,17.0,47,0.00,,SKC,0.00,VWS V14.00,2013-05-25 17:04:00,
2013-05-25 13:09:00,58.2,39.7,30.10,WNW,286,12.0,18.0,50,0.00,,SKC,0.00,VWS V14.00,2013-05-25 17:09:00,
2013-05-25 13:14:00,58.2,39.2,30.11,NNW,345,5.0,18.0,49,0.00,,SKC,0.00,VWS V14.00,2013-05-25 17:14:00,
2013-05-25 13:19:00,58.2,38.1,30.10,NW,304,9.0,18.0,47,0.00,,SKC,0.00,VWS V14.00,2013-05-25 17:19:00,
2013-05-25 13:24:00,58.2,38.1,30.10,NNE,15,10.0,18.0,47,0.00,,SKC,0.00,VWS V14.00,2013-05-25 17:24:00,
2013-05-25 13:29:00,58.8,37.5,30.10,North,350,8.0,16.0,45,0.00,,SKC,0.00,VWS V14.00,2013-05-25 17:29:00,
2013-05-25 13:30:00,58.2,38.1,30.10,NNE,15,10.0,18.0,47,0.00,,SKC,0.00,VWS V14.00,2013-05-25 17:30:00,
2013-05-25 13:34:00,58.5,38.4,30.10,WNW,299,7.0,17.0,47,0.00,,SKC,0.00,VWS V14.00,2013-05-25 17:34:00,
2013-05-25 13:39:00,58.4,38.3,30.10,WNW,294,8.0,17.0,47,0.00,,SKC,0.00,VWS V14.00,2013-05-25 17:39:00,
2013-05-25 13:44:00,58.3,37.6,30.10,NNW,333,8.0,18.0,46,0.00,,SKC,0.00,VWS V14.00,2013-05-25 17:44:00,
2013-05-25 13:49:00,58.6,39.0,30.10,WNW,302,8.0,18.0,48,0.00,,SKC,0.00,VWS V14.00,2013-05-25 17:49:00,
2013-05-25 13:54:00,59.0,38.8,30.10,NW,318,6.0,18.0,47,0.00,,SKC,0.00,VWS V14.00,2013-05-25 17:54:00,
2013-05-25 13:59:00,59.0,38.8,30.10,NW,318,6.0,18.0,47,0.00,,SKC,0.00,VWS V14.00,2013-05-25 17:59:00,
2013-05-25 14:04:00,58.9,38.7,30.10,WNW,303,7.0,13.0,47,0.00,,SKC,0.00,VWS V14.00,2013-05-25 18:04:00,
2013-05-25 14:09:00,59.0,38.3,30.09,NW,315,7.0,16.0,46,0.00,,SKC,0.00,VWS V14.00,2013-05-25 18:09:00,
2013-05-25 14:14:00,59.5,38.7,30.09,WNW,300,12.0,21.0,46,0.00,,SKC,0.00,VWS V14.00,2013-05-25 18:14:00,
2013-05-25 14:19:00,60.1,39.3,30.09,NW,304,7.0,21.0,46,0.00,,SKC,0.00,VWS V14.00,2013-05-25 18:19:00,
2013-05-25 14:24:00,60.4,39.0,30.09,WNW,298,5.0,21.0,45,0.00,,SKC,0.00,VWS V14.00,2013-05-25 18:24:00,
2013-05-25 14:30:00,60.8,37.6,30.09,WNW,303,11.0,18.0,42,0.00,,SKC,0.00,VWS V14.00,2013-05-25 18:30:00,
2013-05-25 14:35:00,60.3,38.3,30.09,WNW,293,8.0,18.0,44,0.00,,SKC,0.00,VWS V14.00,2013-05-25 18:35:00,
2013-05-25 14:40:00,60.9,38.3,30.09,WNW,293,13.0,21.0,43,0.00,,SKC,0.00,VWS V14.00,2013-05-25 18:40:00,
2013-05-25 14:45:00,61.0,39.0,30.09,NW,304,13.0,21.0,44,0.00,,SKC,0.00,VWS V14.00,2013-05-25 18:45:00,
2013-05-25 14:50:00,61.5,39.4,30.09,NW,321,10.0,21.0,44,0.00,,SKC,0.00,VWS V14.00,2013-05-25 18:50:00,
2013-05-25 14:55:00,61.6,36.4,30.09,WNW,288,14.0,17.0,39,0.00,,SKC,0.00,VWS V14.00,2013-05-25 18:55:00,
2013-05-25 15:00:00,61.7,37.8,30.08,NNW,340,7.0,20.0,41,0.00,,SKC,0.00,VWS V14.00,2013-05-25 19:00:00,
2013-05-25 15:05:00,61.8,36.0,30.08,NNW,330,9.0,25.0,38,0.00,,SKC,0.00,VWS V14.00,2013-05-25 19:05:00,
2013-05-25 15:10:00,61.8,37.2,30.08,NW,313,5.0,25.0,40,0.00,,SKC,0.00,VWS V14.00,2013-05-25 19:10:00,
2013-05-25 15:15:00,61.6,37.1,30.08,North,355,12.0,25.0,40,0.00,,SKC,0.00,VWS V14.00,2013-05-25 19:15:00,
2013-05-25 15:20:00,61.3,36.8,30.08,NNW,344,7.0,25.0,40,0.00,,SKC,0.00,VWS V14.00,2013-05-25 19:20:00,
2013-05-25 15:25:00,61.6,38.3,30.08,North,355,5.0,10.0,42,0.00,,SKC,0.00,VWS V14.00,2013-05-25 19:25:00,
2013-05-25 15:30:00,61.4,38.1,30.08,NW,321,7.0,25.0,42,0.00,,SKC,0.00,VWS V14.00,2013-05-25 19:30:00,
2013-05-25 15:31:00,62.1,37.5,30.08,WNW,303,7.0,19.0,40,0.00,,SKC,0.00,VWS V14.00,2013-05-25 19:31:00,
2013-05-25 15:36:00,62.5,37.9,30.08,NNW,344,9.0,19.0,40,0.00,,SKC,0.00,VWS V14.00,2013-05-25 19:36:00,
2013-05-25 15:41:00,62.5,36.6,30.08,NW,307,8.0,21.0,38,0.00,,SKC,0.00,VWS V14.00,2013-05-25 19:41:00,
2013-05-25 15:46:00,62.4,37.1,30.08,NNW,338,6.0,21.0,39,0.00,,SKC,0.00,VWS V14.00,2013-05-25 19:46:00,
2013-05-25 15:51:00,62.9,37.6,30.08,NNW,344,5.0,21.0,39,0.00,,SKC,0.00,VWS V14.00,2013-05-25 19:51:00,
2013-05-25 15:56:00,63.2,37.9,30.08,NW,326,7.0,17.0,39,0.00,,SKC,0.00,VWS V14.00,2013-05-25 19:56:00,
2013-05-25 16:00:00,63.1,38.4,30.08,WNW,301,13.0,21.0,40,0.00,,SKC,0.00,VWS V14.00,2013-05-25 20:00:00,
2013-05-25 16:01:00,62.9,38.2,30.07,NW,311,5.0,19.0,40,0.00,,SKC,0.00,VWS V14.00,2013-05-25 20:01:00,
2013-05-25 16:06:00,63.2,38.5,30.08,NNW,344,15.0,20.0,40,0.00,,SKC,0.00,VWS V14.00,2013-05-25 20:06:00,
2013-05-25 16:11:00,62.9,36.2,30.07,NW,321,18.0,21.0,37,0.00,,SKC,0.00,VWS V14.00,2013-05-25 20:11:00,
2013-05-25 16:16:00,62.8,36.8,30.07,NW,317,4.0,21.0,38,0.00,,SKC,0.00,VWS V14.00,2013-05-25 20:16:00,
2013-05-25 16:21:00,62.8,36.8,30.07,North,360,7.0,21.0,38,0.00,,SKC,0.00,VWS V14.00,2013-05-25 20:21:00,
2013-05-25 16:26:00,62.8,36.2,30.07,NNW,339,7.0,18.0,37,0.00,,SKC,0.00,VWS V14.00,2013-05-25 20:26:00,
2013-05-25 16:30:00,62.7,37.4,30.07,NNW,342,5.0,21.0,39,0.00,,SKC,0.00,VWS V14.00,2013-05-25 20:30:00,
2013-05-25 16:32:00,63.0,35.7,30.07,NNE,15,5.0,18.0,36,0.00,,SKC,0.00,VWS V14.00,2013-05-25 20:32:00,
2013-05-25 16:37:00,63.2,37.2,30.07,NNW,340,7.0,18.0,38,0.00,,SKC,0.00,VWS V14.00,2013-05-25 20:37:00,
2013-05-25 16:42:00,63.5,38.1,30.07,WNW,296,5.0,18.0,39,0.00,,SKC,0.00,VWS V14.00,2013-05-25 20:42:00,
2013-05-25 16:47:00,63.7,38.3,30.07,NNW,337,9.0,18.0,39,0.00,,SKC,0.00,VWS V14.00,2013-05-25 20:47:00,
2013-05-25 16:52:00,63.9,37.1,30.07,NNW,346,9.0,18.0,37,0.00,,SKC,0.00,VWS V14.00,2013-05-25 20:52:00,
2013-05-25 16:57:00,64.0,37.9,30.07,NW,305,7.0,12.0,38,0.00,,SKC,0.00,VWS V14.00,2013-05-25 20:57:00,
2013-05-25 17:00:00,63.9,37.8,30.07,NW,314,8.0,18.0,38,0.00,,SKC,0.00,VWS V14.00,2013-05-25 21:00:00,
2013-05-25 17:03:00,63.6,36.9,30.07,WNW,300,9.0,13.0,37,0.00,,SKC,0.00,VWS V14.00,2013-05-25 21:03:00,
2013-05-25 17:08:00,63.5,37.5,30.07,North,11,5.0,13.0,38,0.00,,SKC,0.00,VWS V14.00,2013-05-25 21:08:00,
2013-05-25 17:13:00,63.5,38.1,30.07,NW,326,8.0,15.0,39,0.00,,SKC,0.00,VWS V14.00,2013-05-25 21:13:00,
2013-05-25 17:18:00,63.6,38.2,30.06,NNW,335,5.0,15.0,39,0.00,,SKC,0.00,VWS V14.00,2013-05-25 21:18:00,
2013-05-25 17:23:00,63.9,38.5,30.06,NW,325,6.0,15.0,39,0.00,,SKC,0.00,VWS V14.00,2013-05-25 21:23:00,
2013-05-25 17:28:00,64.0,37.2,30.07,NW,304,7.0,12.0,37,0.00,,SKC,0.00,VWS V14.00,2013-05-25 21:28:00,
2013-05-25 17:30:00,63.9,38.5,30.06,NW,325,4.0,15.0,39,0.00,,SKC,0.00,VWS V14.00,2013-05-25 21:30:00,
2013-05-25 17:33:00,64.0,37.9,30.06,WNW,298,7.0,14.0,38,0.00,,SKC,0.00,VWS V14.00,2013-05-25 21:33:00,
2013-05-25 17:38:00,64.1,37.3,30.06,North,355,8.0,16.0,37,0.00,,SKC,0.00,VWS V14.00,2013-05-25 21:38:00,
2013-05-25 17:43:00,64.0,37.2,30.06,NW,319,7.0,16.0,37,0.00,,SKC,0.00,VWS V14.00,2013-05-25 21:43:00,
2013-05-25 17:48:00,63.9,36.5,30.07,NNW,336,5.0,20.0,36,0.00,,SKC,0.00,VWS V14.00,2013-05-25 21:48:00,
2013-05-25 17:53:00,63.8,36.4,30.07,NNW,330,6.0,6.0,36,0.00,,SKC,0.00,VWS V14.00,2013-05-25 21:53:00,
2013-05-25 17:58:00,63.8,37.0,30.06,WNW,295,9.0,11.0,37,0.00,,SKC,0.00,VWS V14.00,2013-05-25 21:58:00,
2013-05-25 18:00:00,63.8,36.4,30.07,NNW,332,5.0,20.0,36,0.00,,SKC,0.00,VWS V14.00,2013-05-25 22:00:00,
2013-05-25 18:03:00,63.8,36.4,30.06,WNW,297,7.0,13.0,36,0.00,,SKC,0.00,VWS V14.00,2013-05-25 22:03:00,
2013-05-25 18:08:00,63.9,37.1,30.06,NW,320,7.0,14.0,37,0.00,,SKC,0.00,VWS V14.00,2013-05-25 22:08:00,
2013-05-25 18:13:00,64.0,37.2,30.06,NNW,336,11.0,14.0,37,0.00,,SKC,0.00,VWS V14.00,2013-05-25 22:13:00,
2013-05-25 18:18:00,64.0,36.5,30.06,North,355,8.0,14.0,36,0.00,,SKC,0.00,VWS V14.00,2013-05-25 22:18:00,
2013-05-25 18:23:00,64.0,36.5,30.06,NNW,342,5.0,8.0,36,0.00,,SKC,0.00,VWS V14.00,2013-05-25 22:23:00,
2013-05-25 18:28:00,63.9,36.5,30.07,NNE,14,6.0,18.0,36,0.00,,SKC,0.00,VWS V14.00,2013-05-25 22:28:00,
2013-05-25 18:30:00,63.9,36.5,30.06,NW,309,4.0,14.0,36,0.00,,SKC,0.00,VWS V14.00,2013-05-25 22:30:00,
2013-05-25 18:34:00,63.8,38.4,30.07,NNW,340,4.0,18.0,39,0.00,,SKC,0.00,VWS V14.00,2013-05-25 22:34:00,
2013-05-25 18:39:00,63.9,37.1,30.07,NW,325,6.0,18.0,37,0.00,,SKC,0.00,VWS V14.00,2013-05-25 22:39:00,
2013-05-25 18:44:00,63.8,36.4,30.07,WNW,294,11.0,18.0,36,0.00,,SKC,0.00,VWS V14.00,2013-05-25 22:44:00,
2013-05-25 18:49:00,63.8,36.4,30.07,NNW,330,6.0,18.0,36,0.00,,SKC,0.00,VWS V14.00,2013-05-25 22:49:00,
2013-05-25 18:54:00,63.7,35.6,30.07,WNW,303,7.0,14.0,35,0.00,,SKC,0.00,VWS V14.00,2013-05-25 22:54:00,
2013-05-25 18:59:00,63.6,35.5,30.07,NW,321,5.0,14.0,35,0.00,,SKC,0.00,VWS V14.00,2013-05-25 22:59:00,
2013-05-25 19:00:00,63.7,36.3,30.07,NW,314,6.0,18.0,36,0.00,,SKC,0.00,VWS V14.00,2013-05-25 23:00:00,
2013-05-25 19:04:00,63.6,35.5,30.07,NW,317,5.0,14.0,35,0.00,,SKC,0.00,VWS V14.00,2013-05-25 23:04:00,
2013-05-25 19:09:00,63.4,36.0,30.07,WNW,296,9.0,14.0,36,0.00,,SKC,0.00,VWS V14.00,2013-05-25 23:09:00,
2013-05-25 19:14:00,63.2,35.1,30.08,NNW,346,9.0,16.0,35,0.00,,SKC,0.00,VWS V14.00,2013-05-25 23:14:00,
2013-05-25 19:19:00,63.0,36.3,30.08,NNW,340,11.0,16.0,37,0.00,,SKC,0.00,VWS V14.00,2013-05-25 23:19:00,
2013-05-25 19:24:00,62.8,36.8,30.08,NNW,342,5.0,6.0,38,0.00,,SKC,0.00,VWS V14.00,2013-05-25 23:24:00,
2013-05-25 19:30:00,62.7,35.4,30.08,NW,309,5.0,12.0,36,0.00,,SKC,0.00,VWS V14.00,2013-05-25 23:30:00,
2013-05-25 19:36:00,62.4,36.5,30.08,NW,323,4.0,12.0,38,0.00,,SKC,0.00,VWS V14.00,2013-05-25 23:36:00,
2013-05-25 19:41:00,62.0,35.5,30.08,NNW,340,6.0,12.0,37,0.00,,SKC,0.00,VWS V14.00,2013-05-25 23:41:00,
2013-05-25 19:45:00,61.6,35.1,30.08,North,5,5.0,12.0,37,0.00,,SKC,0.00,VWS V14.00,2013-05-25 23:45:00,
2013-05-25 19:50:00,61.4,34.9,30.08,NW,311,7.0,13.0,37,0.00,,SKC,0.00,VWS V14.00,2013-05-25 23:50:00,
2013-05-25 19:55:00,61.3,34.8,30.08,NW,305,4.0,10.0,37,0.00,,SKC,0.00,VWS V14.00,2013-05-25 23:55:00,
2013-05-25 20:00:00,61.3,34.8,30.08,NNW,341,5.0,13.0,37,0.00,,SKC,0.00,VWS V14.00,2013-05-26 00:00:00,
2013-05-25 20:01:00,61.0,35.2,30.09,North,355,4.0,10.0,38,0.00,,SKC,0.00,VWS V14.00,2013-05-26 00:01:00,
2013-05-25 20:06:00,60.8,35.1,30.08,NW,323,6.0,10.0,38,0.00,,SKC,0.00,VWS V14.00,2013-05-26 00:06:00,
2013-05-25 20:11:00,60.6,34.9,30.08,NNW,343,2.0,10.0,38,0.00,,SKC,0.00,VWS V14.00,2013-05-26 00:11:00,
2013-05-25 20:16:00,60.4,35.3,30.09,NNW,348,1.0,11.0,39,0.00,,SKC,0.00,VWS V14.00,2013-05-26 00:16:00,
2013-05-25 20:21:00,60.0,34.3,30.09,NNW,327,2.0,11.0,38,0.00,,SKC,0.00,VWS V14.00,2013-05-26 00:21:00,
2013-05-25 20:26:00,59.7,34.7,30.09,NNW,331,4.0,6.0,39,0.00,,SKC,0.00,VWS V14.00,2013-05-26 00:26:00,
2013-05-25 20:30:00,59.9,34.9,30.09,NNW,327,5.0,11.0,39,0.00,,SKC,0.00,VWS V14.00,2013-05-26 00:30:00,
2013-05-25 20:31:00,59.4,35.1,30.09,NNW,343,1.0,8.0,40,0.00,,SKC,0.00,VWS V14.00,2013-05-26 00:31:00,
2013-05-25 20:37:00,59.1,34.8,30.09,North,349,7.0,8.0,40,0.00,,SKC,0.00,VWS V14.00,2013-05-26 00:37:00,
2013-05-25 20:42:00,59.0,34.7,30.10,NNW,341,1.0,8.0,40,0.00,,SKC,0.00,VWS V14.00,2013-05-26 00:42:00,
2013-05-25 20:47:00,58.7,35.1,30.10,NNW,336,1.0,8.0,41,0.00,,SKC,0.00,VWS V14.00,2013-05-26 00:47:00,
2013-05-25 20:52:00,58.5,34.3,30.09,NNW,327,0.0,8.0,40,0.00,,SKC,0.00,VWS V14.00,2013-05-26 00:52:00,
2013-05-25 20:57:00,58.3,34.7,30.10,NNW,327,0.0,4.0,41,0.00,,SKC,0.00,VWS V14.00,2013-05-26 00:57:00,
2013-05-25 21:00:00,58.5,34.9,30.09,NNW,327,0.0,8.0,41,0.00,,SKC,0.00,VWS V14.00,2013-05-26 01:00:00,
2013-05-25 21:02:00,58.0,35.1,30.10,NNW,327,0.0,4.0,42,0.00,,SKC,0.00,VWS V14.00,2013-05-26 01:02:00,
2013-05-25 21:08:00,57.7,34.8,30.10,NE,54,1.0,5.0,42,0.00,,SKC,0.00,VWS V14.00,2013-05-26 01:08:00,
2013-05-25 21:13:00,57.6,35.3,30.10,North,9,3.0,8.0,43,0.00,,SKC,0.00,VWS V14.00,2013-05-26 01:13:00,
2013-05-25 21:18:00,57.5,35.2,30.10,NNW,333,0.0,8.0,43,0.00,,SKC,0.00,VWS V14.00,2013-05-26 01:18:00,
2013-05-25 21:23:00,57.4,35.7,30.10,NNW,333,2.0,8.0,44,0.00,,SKC,0.00,VWS V14.00,2013-05-26 01:23:00,
2013-05-25 21:28:00,57.1,35.4,30.11,North,355,4.0,7.0,44,0.00,,SKC,0.00,VWS V14.00,2013-05-26 01:28:00,
2013-05-25 21:30:00,57.4,35.7,30.11,NNW,333,2.0,8.0,44,0.00,,SKC,0.00,VWS V14.00,2013-05-26 01:30:00,
2013-05-25 21:33:00,56.9,35.8,30.11,North,360,1.0,7.0,45,0.00,,SKC,0.00,VWS V14.00,2013-05-26 01:33:00,
2013-05-25 21:38:00,56.6,36.1,30.11,North,360,2.0,7.0,46,0.00,,SKC,0.00,VWS V14.00,2013-05-26 01:38:00,
2013-05-25 21:43:00,56.2,36.3,30.12,North,360,0.0,7.0,47,0.00,,SKC,0.00,VWS V14.00,2013-05-26 01:43:00,
2013-05-25 21:48:00,55.9,36.0,30.12,North,360,1.0,7.0,47,0.00,,SKC,0.00,VWS V14.00,2013-05-26 01:48:00,
2013-05-25 21:53:00,55.6,35.7,30.12,North,355,1.0,2.0,47,0.00,,SKC,0.00,VWS V14.00,2013-05-26 01:53:00,
2013-05-25 21:58:00,55.4,35.5,30.12,North,355,1.0,4.0,47,0.00,,SKC,0.00,VWS V14.00,2013-05-26 01:58:00,
2013-05-25 22:00:00,55.7,35.8,30.12,North,355,1.0,7.0,47,0.00,,SKC,0.00,VWS V14.00,2013-05-26 02:00:00,
2013-05-25 22:03:00,55.3,36.0,30.12,North,355,0.0,4.0,48,0.00,,SKC,0.00,VWS V14.00,2013-05-26 02:03:00,
2013-05-25 22:09:00,55.0,36.2,30.12,North,355,0.0,6.0,49,0.00,,SKC,0.00,VWS V14.00,2013-05-26 02:09:00,
2013-05-25 22:14:00,54.8,36.0,30.13,North,355,0.0,6.0,49,0.00,,SKC,0.00,VWS V14.00,2013-05-26 02:14:00,
2013-05-25 22:19:00,54.6,36.8,30.13,North,355,0.0,6.0,51,0.00,,SKC,0.00,VWS V14.00,2013-05-26 02:19:00,
2013-05-25 22:24:00,54.2,37.0,30.13,North,355,0.0,0.0,52,0.00,,SKC,0.00,VWS V14.00,2013-05-26 02:24:00,
2013-05-25 22:29:00,53.7,37.0,30.13,North,355,0.0,1.0,53,0.00,,SKC,0.00,VWS V14.00,2013-05-26 02:29:00,
2013-05-25 22:30:00,54.3,37.1,30.13,North,355,0.0,6.0,52,0.00,,SKC,0.00,VWS V14.00,2013-05-26 02:30:00,
2013-05-25 22:34:00,53.2,37.0,30.13,North,355,0.0,1.0,54,0.00,,SKC,0.00,VWS V14.00,2013-05-26 02:34:00,
2013-05-25 22:40:00,52.7,37.0,30.14,North,355,0.0,1.0,55,0.00,,SKC,0.00,VWS V14.00,2013-05-26 02:40:00,
2013-05-25 22:45:00,52.1,37.3,30.14,North,355,0.0,1.0,57,0.00,,SKC,0.00,VWS V14.00,2013-05-26 02:45:00,
2013-05-25 22:50:00,51.7,37.4,30.14,North,355,0.0,1.0,58,0.00,,SKC,0.00,VWS V14.00,2013-05-26 02:50:00,
2013-05-25 22:55:00,51.2,37.4,30.14,North,355,0.0,0.0,59,0.00,,SKC,0.00,VWS V14.00,2013-05-26 02:55:00,
2013-05-25 23:00:00,50.7,37.3,30.14,North,355,0.0,0.0,60,0.00,,SKC,0.00,VWS V14.00,2013-05-26 03:00:00,
2013-05-25 23:05:00,50.3,37.4,30.14,North,355,0.0,0.0,61,0.00,,SKC,0.00,VWS V14.00,2013-05-26 03:05:00,
2013-05-25 23:11:00,49.8,38.1,30.14,North,355,0.0,0.0,64,0.00,,SKC,0.00,VWS V14.00,2013-05-26 03:11:00,
2013-05-25 23:16:00,49.3,37.7,30.15,North,355,0.0,2.0,64,0.00,,SKC,0.00,VWS V14.00,2013-05-26 03:16:00,
2013-05-25 23:21:00,49.0,37.4,30.15,North,355,0.0,2.0,64,0.00,,SKC,0.00,VWS V14.00,2013-05-26 03:21:00,
2013-05-25 23:26:00,48.8,37.6,30.15,North,355,0.0,0.0,65,0.00,,SKC,0.00,VWS V14.00,2013-05-26 03:26:00,
2013-05-25 23:30:00,48.9,37.3,30.15,North,355,0.0,2.0,64,0.00,,SKC,0.00,VWS V14.00,2013-05-26 03:30:00,
2013-05-25 23:31:00,48.8,37.2,30.15,North,355,0.0,0.0,64,0.00,,SKC,0.00,VWS V14.00,2013-05-26 03:31:00,
2013-05-25 23:37:00,48.8,36.4,30.15,North,350,0.0,2.0,62,0.00,,SKC,0.00,VWS V14.00,2013-05-26 03:37:00,
2013-05-25 23:42:00,50.1,35.5,30.15,West,272,1.0,6.0,57,0.00,,SKC,0.00,VWS V14.00,2013-05-26 03:42:00,
2013-05-25 23:47:00,51.6,35.5,30.15,NNW,327,0.0,6.0,54,0.00,,SKC,0.00,VWS V14.00,2013-05-26 03:47:00,
2013-05-25 23:52:00,52.4,35.8,30.14,NNW,327,0.0,6.0,53,0.00,,SKC,0.00,VWS V14.00,2013-05-26 03:52:00,
2013-05-25 23:57:00,52.8,35.7,30.14,NW,325,2.0,5.0,52,0.00,,SKC,0.00,VWS V14.00,2013-05-26 03:57:00,